• Em Portugal
  • Lista de países
  • Para 7 dias
  • Temperatura da água
  • Mapas de satélite
  • Mapa do tempo
  • Widgets de tempo
  • user-avatar
    Iniciar Sessão

    Previsão horária em Otok

    Hoje, 16 Agosto, Quinta-feira

    Tempo Temperatura Precipitação Vento Pressão Humidade
    00:00 +19°C° 0 mm 1 m/s 747 mmHg 72%
    01:00 +19°C° 0 mm 1 m/s 747 mmHg 70%
    02:00 +19°C° 0 mm 1 m/s 747 mmHg 70%
    03:00 +19°C° 0 mm 1 m/s 747 mmHg 71%
    04:00 +19°C° 0 mm 1 m/s 747 mmHg 71%
    05:00 +20°C° 0 mm 1 m/s 747 mmHg 69%
    06:00 +21°C° 0 mm 1 m/s 747 mmHg 67%
    07:00 +21°C° 0 mm 1 m/s 747 mmHg 64%
    08:00 +23°C° 0 mm 1 m/s 747 mmHg 59%
    09:00 +24°C° 0 mm 1 m/s 747 mmHg 53%
    10:00 +26°C° 0 mm 1 m/s 747 mmHg 47%
    11:00 +26°C° 0 mm 1 m/s 747 mmHg 46%
    12:00 +27°C° 0 mm 1 m/s 746 mmHg 45%
    13:00 +27°C° 0 mm 1 m/s 746 mmHg 44%
    14:00 +27°C° 0 mm 1 m/s 746 mmHg 43%
    15:00 +27°C° 0 mm 1 m/s 745 mmHg 43%
    16:00 +28°C° 0 mm 1 m/s 745 mmHg 42%
    17:00 +26°C° 0 mm 2 m/s 745 mmHg 48%
    18:00 +25°C° 0 mm 2 m/s 745 mmHg 53%
    19:00 +23°C° 0 mm 2 m/s 744 mmHg 59%
    20:00 +21°C° 0 mm 2 m/s 744 mmHg 62%
    21:00 +20°C° 0 mm 2 m/s 745 mmHg 65%
    22:00 +19°C° 0 mm 2 m/s 745 mmHg 68%
    23:00 +19°C° 0 mm 2 m/s 745 mmHg 69%

    Amanhã, 17 Agosto, Sexta-feira

    Tempo Temperatura Precipitação Vento Pressão Humidade
    00:00 +19°C° 0 mm 2 m/s 745 mmHg 70%
    01:00 +18°C° 0 mm 2 m/s 744 mmHg 71%
    02:00 +18°C° 0 mm 2 m/s 744 mmHg 72%
    03:00 +18°C° 0 mm 2 m/s 744 mmHg 73%
    04:00 +18°C° 0 mm 2 m/s 744 mmHg 74%
    05:00 +19°C° 0 mm 2 m/s 744 mmHg 70%
    06:00 +20°C° 0 mm 2 m/s 744 mmHg 67%
    07:00 +21°C° 0 mm 2 m/s 744 mmHg 64%
    08:00 +24°C° 0 mm 2 m/s 744 mmHg 58%
    09:00 +26°C° 0 mm 2 m/s 744 mmHg 51%
    10:00 +28°C° 0 mm 2 m/s 744 mmHg 45%
    11:00 +29°C° 0 mm 2 m/s 744 mmHg 43%
    12:00 +30°C° 0 mm 1 m/s 743 mmHg 40%
    13:00 +30°C° 0 mm 1 m/s 743 mmHg 38%
    14:00 +30°C° 0 mm 1 m/s 743 mmHg 39%
    15:00 +30°C° 0 mm 1 m/s 743 mmHg 39%
    16:00 +30°C° 0 mm 1 m/s 742 mmHg 40%
    17:00 +28°C° 0 mm 1 m/s 743 mmHg 44%
    18:00 +27°C° 0 mm 1 m/s 743 mmHg 48%
    19:00 +26°C° 0 mm 1 m/s 743 mmHg 52%
    20:00 +25°C° 0 mm 1 m/s 743 mmHg 55%
    21:00 +24°C° 0 mm 1 m/s 743 mmHg 57%
    22:00 +23°C° 0 mm 1 m/s 743 mmHg 60%
    23:00 +23°C° 0 mm 1 m/s 743 mmHg 62%

    Depois de amanhã, 18 Agosto, Sábado

    Tempo Temperatura Precipitação Vento Pressão Humidade
    00:00 +22°C° 0 mm 1 m/s 743 mmHg 63%
    01:00 +22°C° 0 mm 1 m/s 744 mmHg 65%
    02:00 +21°C° 0 mm 1 m/s 744 mmHg 67%
    03:00 +21°C° 0 mm 1 m/s 744 mmHg 69%
    04:00 +21°C° 0 mm 1 m/s 744 mmHg 71%
    05:00 +21°C° 0,1 mm 1 m/s 744 mmHg 71%
    06:00 +22°C° 0,1 mm 1 m/s 745 mmHg 70%
    07:00 +23°C° 0,1 mm 2 m/s 745 mmHg 70%
    08:00 +24°C° 0,1 mm 2 m/s 745 mmHg 69%
    09:00 +24°C° 0,1 mm 3 m/s 746 mmHg 68%
    10:00 +25°C° 0,1 mm 3 m/s 746 mmHg 67%
    11:00 +26°C° 0,7 mm 3 m/s 746 mmHg 65%
    12:00 +26°C° 0,7 mm 3 m/s 746 mmHg 64%
    13:00 +26°C° 0,7 mm 3 m/s 746 mmHg 63%
    14:00 +26°C° 0,4 mm 3 m/s 746 mmHg 62%
    15:00 +27°C° 0,4 mm 3 m/s 746 mmHg 61%
    16:00 +27°C° 0,4 mm 3 m/s 746 mmHg 60%
    17:00 +25°C° 0,1 mm 3 m/s 746 mmHg 64%
    18:00 +24°C° 0,1 mm 2 m/s 746 mmHg 68%
    19:00 +23°C° 0,1 mm 2 m/s 747 mmHg 73%
    20:00 +21°C° 0 mm 2 m/s 747 mmHg 75%
    21:00 +21°C° 0 mm 1 m/s 747 mmHg 78%
    22:00 +20°C° 0 mm 1 m/s 748 mmHg 80%
    23:00 +20°C° 0 mm 1 m/s 748 mmHg 81%

    19 Agosto, Domingo

    Tempo Temperatura Precipitação Vento Pressão Humidade
    00:00 +20°C° 0 mm 1 m/s 748 mmHg 81%
    01:00 +19°C° 0 mm 1 m/s 748 mmHg 82%
    02:00 +19°C° 0 mm 1 m/s 748 mmHg 82%
    03:00 +18°C° 0 mm 1 m/s 748 mmHg 83%
    04:00 +18°C° 0 mm 1 m/s 748 mmHg 84%
    05:00 +19°C° 0 mm 1 m/s 748 mmHg 79%
    06:00 +20°C° 0 mm 1 m/s 749 mmHg 74%
    07:00 +21°C° 0 mm 1 m/s 749 mmHg 69%
    08:00 +23°C° 0 mm 1 m/s 749 mmHg 60%
    09:00 +24°C° 0 mm 1 m/s 749 mmHg 51%
    10:00 +26°C° 0 mm 2 m/s 749 mmHg 42%
    11:00 +27°C° 0 mm 2 m/s 749 mmHg 40%
    12:00 +28°C° 0 mm 2 m/s 749 mmHg 37%
    13:00 +28°C° 0 mm 2 m/s 748 mmHg 35%
    14:00 +28°C° 0 mm 2 m/s 748 mmHg 35%
    15:00 +28°C° 0 mm 2 m/s 748 mmHg 35%
    16:00 +29°C° 0 mm 2 m/s 748 mmHg 36%
    17:00 +27°C° 0 mm 1 m/s 747 mmHg 41%
    18:00 +25°C° 0 mm 1 m/s 747 mmHg 47%
    19:00 +23°C° 0 mm 1 m/s 747 mmHg 53%
    20:00 +23°C° 0 mm 1 m/s 747 mmHg 55%
    21:00 +22°C° 0 mm 1 m/s 748 mmHg 56%
    22:00 +21°C° 0 mm 1 m/s 748 mmHg 58%
    23:00 +21°C° 0 mm 1 m/s 748 mmHg 59%

    20 Agosto, Segunda-feira

    Tempo Temperatura Precipitação Vento Pressão Humidade
    00:00 +20°C° 0 mm 1 m/s 747 mmHg 60%
    01:00 +20°C° 0 mm 1 m/s 747 mmHg 61%
    02:00 +20°C° 0 mm 1 m/s 747 mmHg 62%
    03:00 +19°C° 0 mm 1 m/s 747 mmHg 63%
    04:00 +19°C° 0 mm 1 m/s 746 mmHg 64%
    05:00 +20°C° 0 mm 1 m/s 747 mmHg 62%
    06:00 +21°C° 0 mm 1 m/s 747 mmHg 61%
    07:00 +22°C° 0 mm 1 m/s 747 mmHg 59%
    08:00 +24°C° 0 mm 2 m/s 747 mmHg 53%
    09:00 +26°C° 0 mm 2 m/s 747 mmHg 47%
    10:00 +28°C° 0 mm 2 m/s 747 mmHg 42%
    11:00 +29°C° 0 mm 2 m/s 746 mmHg 40%
    12:00 +30°C° 0 mm 3 m/s 746 mmHg 38%
    13:00 +31°C° 0 mm 3 m/s 746 mmHg 36%
    14:00 +31°C° 0 mm 3 m/s 745 mmHg 37%
    15:00 +31°C° 0 mm 3 m/s 745 mmHg 37%
    16:00 +31°C° 0 mm 3 m/s 745 mmHg 37%
    17:00 +29°C° 0 mm 3 m/s 745 mmHg 43%
    18:00 +27°C° 0 mm 2 m/s 745 mmHg 50%
    19:00 +26°C° 0 mm 2 m/s 745 mmHg 56%
    20:00 +25°C° 0 mm 2 m/s 745 mmHg 59%
    21:00 +24°C° 0 mm 1 m/s 745 mmHg 63%
    22:00 +23°C° 0 mm 1 m/s 745 mmHg 66%
    23:00 +22°C° 0 mm 1 m/s 745 mmHg 69%

    21 Agosto, Terça-feira

    Tempo Temperatura Precipitação Vento Pressão Humidade
    00:00 +22°C° 0 mm 1 m/s 745 mmHg 71%
    01:00 +21°C° 0 mm 1 m/s 746 mmHg 74%
    02:00 +21°C° 0 mm 1 m/s 745 mmHg 76%
    03:00 +20°C° 0 mm 1 m/s 745 mmHg 77%
    04:00 +20°C° 0 mm 1 m/s 745 mmHg 79%
    05:00 +21°C° 0 mm 1 m/s 746 mmHg 76%
    06:00 +22°C° 0 mm 1 m/s 746 mmHg 72%
    07:00 +23°C° 0 mm 1 m/s 746 mmHg 69%
    08:00 +25°C° 0 mm 1 m/s 746 mmHg 63%
    09:00 +26°C° 0 mm 2 m/s 746 mmHg 58%
    10:00 +28°C° 0 mm 2 m/s 746 mmHg 52%
    11:00 +28°C° 0 mm 2 m/s 746 mmHg 51%
    12:00 +29°C° 0 mm 2 m/s 745 mmHg 49%
    13:00 +29°C° 0 mm 2 m/s 745 mmHg 47%
    14:00 +29°C° 0 mm 2 m/s 745 mmHg 48%
    15:00 +29°C° 0 mm 2 m/s 744 mmHg 48%
    16:00 +29°C° 0 mm 2 m/s 744 mmHg 49%
    17:00 +28°C° 0,1 mm 1 m/s 744 mmHg 54%
    18:00 +27°C° 0,1 mm 1 m/s 744 mmHg 59%
    19:00 +25°C° 0,1 mm 1 m/s 743 mmHg 64%
    20:00 +24°C° 0,3 mm 1 m/s 744 mmHg 67%
    21:00 +23°C° 0,3 mm 1 m/s 744 mmHg 70%
    22:00 +23°C° 0,3 mm 1 m/s 744 mmHg 74%
    23:00 +22°C° 0 mm 1 m/s 744 mmHg 75%
    Mostrar mais